Tracking 17154 objects as of 31-July-2015
HD Live streaming from Space Station

CZ-4 DEB

Track CZ-4 DEB now!
10-day predictions
CZ-4 DEB is classified as:


NORAD ID: 26259
Int'l Code: 1999-057EV
Perigee: 672.6 km
Apogee: 804.3 km
Inclination: 98.5 °
Period: 99.4 minutes
Semi major axis: 7109 km
RCS: 0.031 m2 (small)
Launch date: October 14, 1999
Source: People's Republic of China (PRC)

Note: This is SATELLITE DEBRIS
Your satellite tracking list
Your tracking list is empty





NASA's NSSDC Master Catalog

Two Line Element Set (TLE):
1 26259U 99057EV  15211.38875013  .00001278  00000-0  33697-3 0  9998
2 26259 098.4894 175.6908 0092596 323.3029 190.3722 14.48260212806241

Source of the keplerian elements: AFSPC

N2YO: 285